Date String (YYYY-MM-DD hh:mm:ss) UTC,Instrument flags,Ambient pressure (hPa),Sample flow (lpm),Bypass flow (lpm),Sample temperature (°C),Ambient temperature (°C),ASC tube jacket temperature (°C),LED temperature (°C),Box temperature (°C),Sample RH (%),Span deviation,Mass concentration (μg/m³),Mass concentration (μg/m³),Mass concentration (μg/m³)
DateTimeUTC,F1_M11,P_M11,Q1_M11,Q2_M11,T1_M11,T2_M11,T3_M11,T4_M11,T5_M11,U1_M11,ZSPAN_M11,X2_M11,X0_M11,X1_M11
2022-10-05 08:00:00,,0832.2,5.00,0.00,29.3,27.8,00.0,38.0,31.2,23.5,0000.0,0005.86,0009.00,0005.54
2022-10-05 08:01:00,,0832.1,4.99,0.00,29.3,27.8,00.0,38.0,31.2,23.6,0000.0,0005.85,0008.86,0005.53
2022-10-05 08:02:00,,0832.2,5.01,0.00,29.3,27.8,00.0,38.0,31.2,23.7,0000.0,0005.88,0008.90,0005.54
2022-10-05 08:03:00,,0832.2,5.00,0.00,29.3,27.8,00.0,38.0,31.2,23.7,0000.0,0005.93,0009.03,0005.55
2022-10-05 08:04:00,,0832.2,4.99,0.00,29.3,27.8,00.0,38.0,31.1,23.7,0000.0,0005.93,0009.05,0005.56
2022-10-05 08:05:00,,0832.2,5.01,0.00,29.3,27.8,00.0,38.0,31.2,23.7,0000.0,0005.91,0009.03,0005.56
2022-10-05 08:06:00,,0832.2,4.99,0.00,29.3,27.8,00.0,38.0,31.2,23.6,0000.0,0005.90,0008.96,0005.54
2022-10-05 08:07:00,,0832.2,5.00,0.00,29.3,27.8,00.0,38.0,31.1,23.6,0000.0,0005.89,0008.88,0005.54
2022-10-05 08:08:00,,0832.2,5.00,0.00,29.3,27.8,00.0,38.0,31.1,23.6,0000.0,0005.86,0008.82,0005.53
2022-10-05 08:09:00,,0832.2,5.00,0.00,29.3,27.8,00.0,38.0,31.2,23.6,0000.0,0005.84,0008.72,0005.54
2022-10-05 08:10:00,,0832.2,5.01,0.00,29.3,27.8,00.0,38.0,31.1,23.6,0000.0,0005.85,0008.60,0005.55
2022-10-05 08:11:00,,0832.2,4.99,0.00,29.3,27.8,00.0,38.0,31.1,23.7,0000.0,0005.88,0008.90,0005.56
2022-10-05 08:12:00,,0832.2,5.00,0.00,29.3,27.8,00.0,38.0,31.1,23.8,0000.0,0005.91,0009.12,0005.57
2022-10-05 08:13:00,,0832.2,5.01,0.00,29.3,27.8,00.0,38.0,31.1,23.8,0000.0,0005.91,0009.12,0005.56
2022-10-05 08:14:00,,0832.1,4.98,0.00,29.3,27.7,00.0,38.0,31.1,23.7,0000.0,0005.88,0009.02,0005.56
2022-10-05 08:15:00,,0832.2,5.01,0.00,29.3,27.7,00.0,38.0,31.1,23.6,0000.0,0005.85,0008.90,0005.56
2022-10-05 08:16:00,,0832.1,4.99,0.00,29.3,27.7,00.0,38.0,31.1,23.5,0000.0,0005.86,0008.93,0005.56
2022-10-05 08:17:00,,0832.2,5.00,0.00,29.3,27.7,00.0,38.0,31.1,23.4,0000.0,0005.87,0008.99,0005.55
2022-10-05 08:18:00,,0832.1,5.02,0.00,29.3,27.7,00.0,38.0,31.1,23.5,0000.0,0005.87,0009.04,0005.54
2022-10-05 08:19:00,,0832.1,4.99,0.00,29.3,27.7,00.0,38.0,31.1,23.5,0000.0,0005.87,0009.02,0005.55
2022-10-05 08:20:00,,0832.1,5.00,0.00,29.2,27.7,00.0,38.0,31.1,23.3,0000.0,0005.88,0009.05,0005.54
2022-10-05 08:21:00,,0832.1,5.01,0.00,29.2,27.7,00.0,38.0,31.1,23.2,0000.0,0005.86,0009.04,0005.53
2022-10-05 08:22:00,,0832.1,5.00,0.00,29.2,27.7,00.0,38.0,31.1,23.2,0000.0,0005.82,0008.90,0005.52
2022-10-05 08:23:00,,0832.2,5.00,0.00,29.2,27.7,00.0,38.0,31.1,23.2,0000.0,0005.78,0008.59,0005.50
2022-10-05 08:24:00,,0832.2,5.01,0.00,29.2,27.7,00.0,38.0,31.1,23.2,0000.0,0005.76,0008.59,0005.48
2022-10-05 08:25:00,,0832.2,4.98,0.00,29.2,27.7,00.0,38.0,31.1,23.2,0000.0,0005.79,0008.66,0005.48
2022-10-05 08:26:00,,0832.2,5.01,0.00,29.2,27.7,00.0,38.0,31.1,23.1,0000.0,0005.81,0008.75,0005.49
2022-10-05 08:27:00,,0832.2,5.01,0.00,29.2,27.6,00.0,38.0,31.1,23.2,0000.0,0005.83,0008.81,0005.51
2022-10-05 08:28:00,,0832.3,4.98,0.00,29.2,27.7,00.0,38.0,31.1,23.2,0000.0,0005.84,0008.82,0005.54
2022-10-05 08:29:00,,0832.3,5.01,0.00,29.2,27.7,00.0,38.0,31.1,23.2,0000.0,0005.86,0008.78,0005.56
2022-10-05 08:30:00,,0832.2,4.99,0.00,29.2,27.6,00.0,38.0,31.1,23.3,0000.0,0005.86,0008.78,0005.58
2022-10-05 08:31:00,,0832.3,5.01,0.00,29.2,27.7,00.0,38.0,31.1,23.3,0000.0,0005.91,0009.29,0005.60
2022-10-05 08:32:00,,0832.3,5.00,0.00,29.2,27.7,00.0,38.0,31.1,23.2,0000.0,0005.95,0009.79,0005.62
2022-10-05 08:33:00,,0832.3,4.99,0.00,29.2,27.7,00.0,38.0,31.1,23.2,0000.0,0005.99,0009.84,0005.64
2022-10-05 08:34:00,,0832.3,4.99,0.00,29.2,27.7,00.0,38.0,31.1,23.2,0000.0,0006.02,0009.83,0005.68
2022-10-05 08:35:00,,0832.3,5.01,0.00,29.2,27.7,00.0,38.0,31.1,23.2,0000.0,0006.03,0009.85,0005.73
2022-10-05 08:36:00,,0832.3,5.01,0.00,29.2,27.7,00.0,38.0,31.1,23.2,0000.0,0006.03,0009.81,0005.76
2022-10-05 08:37:00,,0832.3,4.99,0.00,29.2,27.6,00.0,37.9,31.1,23.1,0000.0,0006.06,0009.78,0005.79
2022-10-05 08:38:00,,0832.3,5.00,0.00,29.2,27.6,00.0,37.9,31.0,23.0,0000.0,0006.08,0009.85,0005.80
2022-10-05 08:39:00,,0832.3,5.00,0.00,29.2,27.6,00.0,37.9,31.0,23.0,0000.0,0006.08,0010.06,0005.80
2022-10-05 08:40:00,,0832.3,5.00,0.00,29.2,27.6,00.0,37.9,31.0,23.0,0000.0,0006.11,0010.33,0005.81
2022-10-05 08:41:00,,0832.4,5.00,0.00,29.2,27.6,00.0,37.9,31.0,23.0,0000.0,0006.12,0010.38,0005.81
2022-10-05 08:42:00,,0832.3,5.01,0.00,29.2,27.6,00.0,37.9,31.0,23.0,0000.0,0006.09,0010.17,0005.82
2022-10-05 08:43:00,,0832.3,4.99,0.00,29.2,27.6,00.0,37.9,31.0,22.9,0000.0,0006.09,0009.74,0005.83
2022-10-05 08:44:00,,0832.3,5.01,0.00,29.2,27.6,00.0,37.9,31.0,22.9,0000.0,0006.10,0009.81,0005.83
2022-10-05 08:45:00,,0832.4,5.00,0.00,29.2,27.6,00.0,37.9,31.0,23.0,0000.0,0006.13,0010.04,0005.83
2022-10-05 08:46:00,,0832.4,5.00,0.00,29.2,27.6,00.0,37.9,31.0,23.1,0000.0,0006.17,0010.22,0005.84
2022-10-05 08:47:00,,0832.4,5.01,0.00,29.2,27.6,00.0,37.9,31.0,23.3,0000.0,0006.19,0010.26,0005.85
2022-10-05 08:48:00,,0832.3,4.99,0.00,29.1,27.6,00.0,37.9,31.0,23.3,0000.0,0006.22,0010.31,0005.87
2022-10-05 08:49:00,,0832.3,5.00,0.00,29.1,27.6,00.0,37.9,31.0,23.3,0000.0,0006.25,0010.28,0005.90
2022-10-05 08:50:00,,0832.3,5.00,0.00,29.1,27.6,00.0,37.9,31.0,23.2,0000.0,0006.29,0010.12,0005.91
2022-10-05 08:51:00,,0832.4,4.99,0.00,29.1,27.6,00.0,37.9,31.0,23.1,0000.0,0006.30,0009.95,0005.92
2022-10-05 08:52:00,,0832.4,5.01,0.00,29.1,27.6,00.0,37.9,31.0,23.0,0000.0,0006.30,0009.90,0005.92
2022-10-05 08:53:00,,0832.4,4.99,0.00,29.1,27.6,00.0,37.9,31.0,22.9,0000.0,0006.33,0009.80,0005.93
2022-10-05 08:54:00,,0832.3,5.01,0.00,29.1,27.6,00.0,37.9,31.0,22.9,0000.0,0006.35,0009.89,0005.93
2022-10-05 08:55:00,,0832.4,5.00,0.00,29.1,27.6,00.0,37.9,31.0,23.0,0000.0,0006.34,0009.75,0005.94
2022-10-05 08:56:00,,0832.3,5.00,0.00,29.1,27.6,00.0,37.9,31.0,23.1,0000.0,0006.29,0009.52,0005.92
2022-10-05 08:57:00,,0832.3,5.01,0.00,29.1,27.6,00.0,37.9,31.0,23.2,0000.0,0006.24,0009.33,0005.89
2022-10-05 08:58:00,,0832.2,5.00,0.00,29.1,27.6,00.0,37.9,31.0,23.2,0000.0,0006.17,0009.33,0005.83
2022-10-05 08:59:00,,0832.3,4.99,0.00,29.1,27.6,00.0,37.9,31.0,23.2,0000.0,0006.08,0009.19,0005.77
